Regional Weather Roundup
Issued by NWS Charleston, SC

Home | Current Version | Previous Version | Text Only | Print | Product List | Glossary On
Versions: 1 2 3 4 5 6 7 8 9 10 11 12 13 14 15 16 17 18 19 20 21 22 23 24 25 26 27 28 29 30 31 32 33 34 35 36 37 38 39 40 41 42 43 44 45 46 47 48 49 50
000
ASUS42 KCHS 180926
RWRCHS

REGIONAL WEATHER ROUNDUP
NATIONAL WEATHER SERVICE CHARLESTON SC
500 AM EDT SAT APR 18 2015

NOTE: "FAIR" INDICATES FEW OR NO CLOUDS BELOW 12,000 FEET WITH NO
SIGNIFICANT WEATHER AND/OR OBSTRUCTIONS TO VISIBILITY.

NOT ALL STATIONS ARE QUALITY CONTROLLED BY THE NATIONAL
WEATHER SERVICE. USE DATA WITH CAUTION...ESPECIALLY
DEWPOINT OBSERVATIONS.

SCZ027-030-031-034>040-042>050-181000-
...SOUTHEAST SOUTH CAROLINA...

CITY           SKY/WX    TMP DP  RH WIND       PRES   REMARKS
N CHARLESTON   LGT RAIN  67  66  97 CALM      29.95F
WATERFRONT PRK   N/A     66 N/A N/A CALM        N/A
MOUNT PLEASANT LGT RAIN  66  66 100 CALM      29.95F VSB 1
PINOPOLIS      NOT AVBL
MONCKS CORNER  RAIN      68  66  94 CALM      29.96S
SUMMERVILLE    DRIZZLE   64  64 100 CALM      29.98R
BEAUFORT MCAS  CLOUDY    68  67  96 E3        29.96R FOG
BEAUFORT ARPT  LGT RAIN  68  68 100 CALM      29.95S
HILTON HEAD IS CLOUDY    68  68 100 CALM      29.97S FOG
WALTERBORO     DRIZZLE   64  64 100 CALM      29.98R
ALLENDALE      LGT RAIN  66  66 100 CALM      29.96S

...SOUTHERN MIDLANDS AND PEE DEE...

CITY           SKY/WX    TMP DP  RH WIND       PRES   REMARKS
GEORGETOWN     NOT AVBL
KINGSTREE      NOT AVBL
ORANGEBURG     LGT RAIN  66  63  90 N3        29.98S
BARNWELL       CLOUDY    66  66 100 CALM      29.99R
AIKEN          CLOUDY    50  48  93 CALM      30.01S
MANNING        LGT RAIN  64  63  94 CALM      29.97S
COLUMBIA       CLOUDY    67  64  90 CALM      29.97S
SUMTER         CLOUDY    64  64 100 W2        29.96R
FLORENCE       CLOUDY    66  64  93 N6        29.96S
MYRTLE BEACH   CLOUDY    66  64  94 NW5       29.98R
N MYRTLE BEACH CLOUDY    67  65  93 N3        29.95S

$$

GAZ063-065-086>088-099>101-113>116-118-119-134>141-150-181000-
...SOUTHEAST GEORGIA...

CITY           SKY/WX    TMP DP  RH WIND       PRES   REMARKS
SAVANNAH ARPT  CLOUDY    68  66  93 CALM      29.95F
HUNTER AAF     CLOUDY    68  68 100 SE2       29.94R
FORT STEWART   CLOUDY    67  66  96 CALM      29.93F
STATESBORO       N/A     67  67 100 CALM      29.95F FOG
SYLVANIA       FOG       67  67 100 CALM      29.96F VSB 1
CLAXTON        CLOUDY    66  66 100 CALM      29.95S FOG

...CSRA...CENTRAL AND FAR SOUTHEAST GEORGIA...

CITY           SKY/WX    TMP DP  RH WIND       PRES   REMARKS
THOMSON        CLOUDY    65  65 100 E3        30.01S
AUGUSTA-BUSH   CLOUDY    65  64  97 CALM      29.96F
AUGUSTA-DANIEL CLOUDY    66  63  90 NE5       29.97F
SWAINSBORO     CLOUDY    68  68 100 CALM      29.96S
VIDALIA        HVY RAIN  66  66 100 SE5       29.95S
EASTMAN        CLOUDY    68  68 100 S6        29.96S
HAZLEHURST     CLOUDY    69  69 100 SE3       29.94S FOG
ALMA           MOCLDY    67  65  93 S6        29.93F
WAYCROSS       CLOUDY    70  69  95 S3        29.94F
JESUP          FOG       68  68 100 CALM      29.95S VSB 3/4
BAXLEY         CLOUDY    68  66  94 CALM      29.95R
BRUNSWICK      MOCLDY    68  64  88 CALM      29.96F
SAINT SIMONS   CLOUDY    68  66  93 NE3       29.96S

$$

SCZ027-028-034-036>038-045-046-048>050-GAZ119-141-181000-
...LAKE AND SUPPLEMENTAL COASTAL OBSERVATIONS...

STATION/POSITION TIME  TEMP    WIND        PRES    WAVE   SWELL
                       AIR SEA DIR/SP/G            HT/PER HT/PER/DIR
                 (UTC) (F)     (DEG/KT/KT) (MB)    (FT/S) (FT/S/D)
UPR LAKE MARION  NOT AVBL
WINYAH BAY       0800   67     290/  3     1014.0S
LAKE MURRAY      0800   64        CALM     1014.6S
ACE BASIN NERRS  NOT AVBL
FORT PULASKI     0900   68 71  120/  2/  3 1014.7F
SAPELO ISLAND    0900   68     140/  2     1014.0F

$$

ANZ835-935-AMZ111-154-330-350-352-354-370-450-454-472-181000-
...C-MAN AND BUOY OBSERVATIONS...

STATION/POSITION TIME  TEMP    WIND        PRES    WAVE   SWELL
                       AIR SEA DIR/SP/G            HT/PER HT/PER/DIR
                 (UTC) (F)     (DEG/KT/KT) (MB)    (FT/S) (FT/S/D)
BUOY 41004       0850   70 74  310/  8/  8 1013.8F   4/ 9   3/ 9
BUOY 41008       0850   66 66   70/  2/  4 1014.7F   3/ 9   3/ 80/ 9
FOLLY BEACH CMAN 0900   67     210/  2/  3 1014.4F
CAPERS NEARSHORE NOT AVBL
FRIPP NEARSHORE  0800   68      CALM  /  2 1014.7F


STATION/POSITION TIME  TEMP    WIND        PRES    WAVE   SWELL
                       AIR SEA DIR/SP/G            HT/PER HT/PER/DIR
                 (UTC) (F)     (DEG/KT/KT) (MB)    (FT/S) (FT/S/D)
5E ST. MARYS GA  0821      70                N/A     2/ 9
FRYING PAN BUOY  0850   74 73  140/  4/  6 1014.0F   4/ 8   3/120/ 8
BUOY 41025       0850   70 74   20/  6/  8 1014.6S   5/ 7   5/110/ 7
CAPE LOOKOUT NC  0900   67      30/  3/  4 1014.0F
BUOY 41002       0850   72 73  220/  8/ 10 1013.9F   5/ 8   5/ 80/ 8
BUOY 41010       0820   77 78  200/ 10/ 12 1014.5F
ST AUGUSTINE FL  0900   68 69     CALM     1015.1F


$$


USA.gov is the U.S. government's official web portal to all federal, state and local government web resources and services.